Overview Statistics Trail Chart Weather Telemetry Raw packets
 

This is the latest recevied weather packets stored in our database for station/object K7FLA. If no packets are shown the sender has not sent any weather packets the latest 10 day(s).

<< 98 99 100 101 102 103 104 >>
Time Temp. Humidity Pressure Rain* Wind** Luminosity Snow
1787930245 35° C 34% 1096 hPa 0 mm - 229 W/m² -
1787929944 34.44° C 34% 1095.7 hPa 0 mm - 216 W/m² -
1787929644 34.44° C 36% 1096 hPa 0 mm - 201 W/m² -
1787929344 33.89° C 37% 1095.9 hPa 0 mm - 188 W/m² -
1787929042 32.78° C 39% 1096 hPa 0 mm - 174 W/m² -
1787928737 32.22° C 40% 1096 hPa 0 mm - 161 W/m² -
1787928436 31.67° C 41% 1095.9 hPa 0 mm - 145 W/m² -
1787928135 30.56° C 47% 1096 hPa 0 mm - 126 W/m² -
1787927834 30° C 47% 1096 hPa 0 mm - 112 W/m² -
1787927524 29.44° C 49% 1095.9 hPa 0 mm - 101 W/m² -
1787927219 28.33° C 52% 1095.9 hPa 0 mm - 90 W/m² -
1787926914 27.78° C 53% 1095.7 hPa 0 mm - 81 W/m² -
1787926614 27.22° C 54% 1095.7 hPa 0 mm - 73 W/m² -
1787926312 26.11° C 55% 1095.6 hPa 0 mm - 65 W/m² -
1787926007 25.56° C 57% 1095.7 hPa 0 mm - 58 W/m² -
1787925702 25° C 59% 1095.5 hPa 0 mm - 50 W/m² -
1787925402 24.44° C 58% 1095.5 hPa 0 mm - 41 W/m² -
1787925101 23.89° C 58% 1095.4 hPa 0 mm - 34 W/m² -
1787924800 23.89° C 57% 1095.3 hPa 0 mm - 25 W/m² -
1787924495 23.89° C 57% 1095.2 hPa 0 mm - 21 W/m² -
1787924191 23.89° C 56% 1095.4 hPa 0 mm - 17 W/m² -
1787923886 23.89° C 56% 1095.2 hPa 0 mm - 12 W/m² -
1787923580 23.89° C 56% 1095.2 hPa 0 mm - 8 W/m² -
1787923275 23.89° C 57% 1095.2 hPa 0 mm - 4 W/m² -
1787922970 23.89° C 57% 1095 hPa 0 mm - 2 W/m² -

* Rain latest hour (hover to see other rain measurements)
** Current wind speed in m/s (hover to see current wind gust speed)